• In Deutschland
  • Länderverzeichnis
  • Für 7 Tage
  • Wassertemperatur
  • Satellitenkarten
  • Wetterkarte
  • Widgets
  • user-avatar
    Anmelden

    Stündliche Wetter Nachiczewan

    Heute, 25 April, Dienstag

    Zeit Temperatur Niederschläge Wind Luftdruck Luftfeuchtigkeit
    00:00 +14°C° 0 mm 2 m/S 685 mmHg 46%
    01:00 +13°C° 0 mm 2 m/S 685 mmHg 47%
    02:00 +13°C° 0 mm 2 m/S 685 mmHg 48%
    03:00 +12°C° 0 mm 2 m/S 684 mmHg 56%
    04:00 +12°C° 0 mm 2 m/S 685 mmHg 55%
    05:00 +12°C° 0 mm 2 m/S 685 mmHg 54%
    06:00 +12°C° 0 mm 2 m/S 686 mmHg 53%
    07:00 +14°C° 0 mm 2 m/S 686 mmHg 47%
    08:00 +15°C° 0 mm 2 m/S 686 mmHg 41%
    09:00 +17°C° 0 mm 2 m/S 687 mmHg 37%
    10:00 +18°C° 0 mm 2 m/S 687 mmHg 34%
    11:00 +19°C° 0 mm 2 m/S 687 mmHg 31%
    12:00 +20°C° 0 mm 2 m/S 687 mmHg 28%
    13:00 +20°C° 0 mm 2 m/S 687 mmHg 27%
    14:00 +20°C° 0 mm 3 m/S 687 mmHg 26%
    15:00 +21°C° 0 mm 3 m/S 687 mmHg 25%
    16:00 +20°C° 0 mm 3 m/S 687 mmHg 27%
    17:00 +19°C° 0 mm 3 m/S 687 mmHg 29%
    18:00 +18°C° 0 mm 4 m/S 687 mmHg 32%
    19:00 +17°C° 0 mm 3 m/S 688 mmHg 35%
    20:00 +14°C° 0 mm 3 m/S 689 mmHg 39%
    21:00 +13°C° 0 mm 3 m/S 689 mmHg 42%
    22:00 +13°C° 0 mm 2 m/S 690 mmHg 45%
    23:00 +13°C° 0 mm 2 m/S 690 mmHg 48%

    Morgen, 26 April, Mittwoch

    Zeit Temperatur Niederschläge Wind Luftdruck Luftfeuchtigkeit
    00:00 +12°C° 0 mm 2 m/S 691 mmHg 51%
    01:00 +10°C° 0 mm 2 m/S 691 mmHg 52%
    02:00 +10°C° 0 mm 2 m/S 691 mmHg 54%
    03:00 +9°C° 0 mm 2 m/S 691 mmHg 56%
    04:00 +9°C° 0 mm 2 m/S 692 mmHg 56%
    05:00 +10°C° 0 mm 1 m/S 692 mmHg 56%
    06:00 +10°C° 0 mm 1 m/S 692 mmHg 56%
    07:00 +12°C° 0 mm 2 m/S 693 mmHg 51%
    08:00 +13°C° 0 mm 2 m/S 693 mmHg 46%
    09:00 +15°C° 0 mm 2 m/S 693 mmHg 41%
    10:00 +16°C° 0 mm 2 m/S 693 mmHg 38%
    11:00 +17°C° 0 mm 3 m/S 693 mmHg 35%
    12:00 +18°C° 0 mm 3 m/S 693 mmHg 31%
    13:00 +19°C° 0 mm 4 m/S 693 mmHg 30%
    14:00 +19°C° 0 mm 4 m/S 692 mmHg 29%
    15:00 +20°C° 0 mm 4 m/S 692 mmHg 29%
    16:00 +19°C° 0 mm 4 m/S 692 mmHg 31%
    17:00 +18°C° 0 mm 4 m/S 692 mmHg 34%
    18:00 +17°C° 0 mm 4 m/S 692 mmHg 36%
    19:00 +15°C° 0 mm 4 m/S 692 mmHg 41%
    20:00 +13°C° 0 mm 3 m/S 693 mmHg 45%
    21:00 +12°C° 0 mm 3 m/S 693 mmHg 50%
    22:00 +12°C° 0 mm 2 m/S 693 mmHg 52%
    23:00 +10°C° 0 mm 2 m/S 693 mmHg 54%

    übermorgen, 27 April, Donnerstag

    Zeit Temperatur Niederschläge Wind Luftdruck Luftfeuchtigkeit
    00:00 +10°C° 0 mm 2 m/S 693 mmHg 57%
    01:00 +9°C° 0 mm 2 m/S 693 mmHg 58%
    02:00 +10°C° 0 mm 1 m/S 693 mmHg 60%
    03:00 +9°C° 0 mm 1 m/S 693 mmHg 61%
    04:00 +9°C° 0 mm 1 m/S 693 mmHg 60%
    05:00 +9°C° 0 mm 1 m/S 693 mmHg 60%
    06:00 +9°C° 0 mm 1 m/S 693 mmHg 59%
    07:00 +11°C° 0 mm 1 m/S 693 mmHg 51%
    08:00 +13°C° 0 mm 1 m/S 693 mmHg 44%
    09:00 +15°C° 0 mm 1 m/S 693 mmHg 36%
    10:00 +17°C° 0 mm 2 m/S 693 mmHg 33%
    11:00 +18°C° 0 mm 2 m/S 693 mmHg 29%
    12:00 +19°C° 0 mm 3 m/S 692 mmHg 26%
    13:00 +20°C° 0 mm 3 m/S 692 mmHg 25%
    14:00 +21°C° 0 mm 3 m/S 692 mmHg 25%
    15:00 +22°C° 0 mm 4 m/S 691 mmHg 24%
    16:00 +21°C° 0 mm 4 m/S 691 mmHg 27%
    17:00 +20°C° 0 mm 4 m/S 691 mmHg 31%
    18:00 +19°C° 0 mm 4 m/S 691 mmHg 34%
    19:00 +17°C° 0 mm 3 m/S 692 mmHg 40%
    20:00 +16°C° 0 mm 3 m/S 692 mmHg 45%
    21:00 +14°C° 0 mm 2 m/S 692 mmHg 50%
    22:00 +14°C° 0 mm 2 m/S 692 mmHg 53%
    23:00 +13°C° 0 mm 2 m/S 692 mmHg 56%

    28 April, Freitag

    Zeit Temperatur Niederschläge Wind Luftdruck Luftfeuchtigkeit
    00:00 +12°C° 0 mm 2 m/S 692 mmHg 58%
    01:00 +12°C° 0 mm 2 m/S 692 mmHg 60%
    02:00 +11°C° 0 mm 1 m/S 692 mmHg 62%
    03:00 +11°C° 0 mm 1 m/S 691 mmHg 63%
    04:00 +11°C° 0 mm 1 m/S 691 mmHg 62%
    05:00 +11°C° 0 mm 1 m/S 692 mmHg 62%
    06:00 +11°C° 0 mm 1 m/S 692 mmHg 61%
    07:00 +14°C° 0 mm 1 m/S 692 mmHg 53%
    08:00 +16°C° 0 mm 1 m/S 692 mmHg 46%
    09:00 +19°C° 0 mm 1 m/S 692 mmHg 39%
    10:00 +20°C° 0 mm 1 m/S 692 mmHg 36%
    11:00 +21°C° 0 mm 2 m/S 691 mmHg 33%
    12:00 +23°C° 0 mm 2 m/S 691 mmHg 31%
    13:00 +24°C° 0 mm 2 m/S 690 mmHg 30%
    14:00 +24°C° 0 mm 3 m/S 690 mmHg 29%
    15:00 +25°C° 0 mm 3 m/S 690 mmHg 29%
    16:00 +24°C° 0 mm 3 m/S 690 mmHg 32%
    17:00 +22°C° 0 mm 3 m/S 690 mmHg 35%
    18:00 +22°C° 0 mm 3 m/S 690 mmHg 38%
    19:00 +20°C° 0,1 mm 3 m/S 690 mmHg 43%
    20:00 +19°C° 0,1 mm 2 m/S 690 mmHg 48%
    21:00 +17°C° 0,1 mm 2 m/S 690 mmHg 54%
    22:00 +17°C° 0 mm 2 m/S 690 mmHg 56%
    23:00 +16°C° 0 mm 2 m/S 689 mmHg 59%

    29 April, Samstag

    Zeit Temperatur Niederschläge Wind Luftdruck Luftfeuchtigkeit
    00:00 +15°C° 0 mm 1 m/S 689 mmHg 61%
    01:00 +15°C° 0 mm 1 m/S 689 mmHg 63%
    02:00 +15°C° 0 mm 1 m/S 688 mmHg 64%
    03:00 +14°C° 0 mm 1 m/S 688 mmHg 66%
    04:00 +14°C° 0 mm 1 m/S 688 mmHg 65%
    05:00 +14°C° 0 mm 1 m/S 688 mmHg 65%
    06:00 +14°C° 0 mm 1 m/S 689 mmHg 65%
    07:00 +16°C° 0 mm 1 m/S 689 mmHg 58%
    08:00 +19°C° 0 mm 1 m/S 689 mmHg 51%
    09:00 +21°C° 0 mm 1 m/S 689 mmHg 44%
    10:00 +22°C° 0 mm 1 m/S 689 mmHg 41%
    11:00 +23°C° 0 mm 1 m/S 688 mmHg 39%
    12:00 +24°C° 0 mm 1 m/S 688 mmHg 36%
    13:00 +24°C° 0,1 mm 1 m/S 688 mmHg 35%
    14:00 +25°C° 0,1 mm 1 m/S 688 mmHg 34%
    15:00 +25°C° 0,1 mm 1 m/S 687 mmHg 32%
    16:00 +24°C° 0,1 mm 1 m/S 687 mmHg 35%
    17:00 +24°C° 0,1 mm 1 m/S 687 mmHg 37%
    18:00 +23°C° 0,1 mm 1 m/S 687 mmHg 40%
    19:00 +22°C° 0 mm 1 m/S 687 mmHg 43%
    20:00 +20°C° 0 mm 2 m/S 688 mmHg 47%
    21:00 +19°C° 0 mm 2 m/S 688 mmHg 51%
    22:00 +18°C° 0 mm 2 m/S 688 mmHg 54%
    23:00 +18°C° 0 mm 1 m/S 687 mmHg 57%

    30 April, Sonntag

    Zeit Temperatur Niederschläge Wind Luftdruck Luftfeuchtigkeit
    00:00 +16°C° 0 mm 1 m/S 687 mmHg 60%
    01:00 +16°C° 0 mm 1 m/S 687 mmHg 61%
    02:00 +15°C° 0 mm 1 m/S 687 mmHg 62%
    03:00 +14°C° 0 mm 1 m/S 686 mmHg 63%
    04:00 +15°C° 0 mm 1 m/S 687 mmHg 62%
    05:00 +15°C° 0 mm 1 m/S 687 mmHg 61%
    06:00 +15°C° 0 mm 1 m/S 687 mmHg 60%
    07:00 +18°C° 0 mm 1 m/S 688 mmHg 52%
    08:00 +20°C° 0 mm 1 m/S 688 mmHg 44%
    09:00 +22°C° 0 mm 1 m/S 688 mmHg 36%
    10:00 +24°C° 0 mm 1 m/S 688 mmHg 33%
    11:00 +25°C° 0 mm 1 m/S 688 mmHg 29%
    12:00 +26°C° 0 mm 1 m/S 687 mmHg 26%
    13:00 +27°C° 0 mm 2 m/S 687 mmHg 25%
    14:00 +27°C° 0 mm 2 m/S 687 mmHg 23%
    15:00 +27°C° 0 mm 2 m/S 686 mmHg 22%
    16:00 +27°C° 0,1 mm 2 m/S 686 mmHg 25%
    17:00 +26°C° 0,1 mm 2 m/S 686 mmHg 27%
    18:00 +25°C° 0,1 mm 2 m/S 686 mmHg 30%
    19:00 +23°C° 0 mm 2 m/S 686 mmHg 34%
    20:00 +21°C° 0 mm 2 m/S 686 mmHg 39%
    21:00 +19°C° 0 mm 2 m/S 686 mmHg 43%
    22:00 +18°C° 0 mm 2 m/S 686 mmHg 46%
    23:00 +18°C° 0 mm 2 m/S 686 mmHg 48%
    Mehr zeigen